Jordan Valley, OR

10:26 AM MST on December 08, 2016 (GMT -0700)
Rome State

Weather History for KREO - November, 2012

Change the Weather History Date:

Saturday, November 3, 2012

  Actual Average Record
Temperature  
Mean Temperature 51 °F 42 °F  
Max Temperature 66 °F 56 °F 70 °F (1983)
Min Temperature 35 °F 27 °F 14 °F (1994)
Degree Days  
Heating Degree Days 14 24  
Month to date heating degree days 55 70  
Since 1 July heating degree days 602 827  
Cooling Degree Days 0 0  
Month to date cooling degree days 0 0  
Year to date cooling degree days 674 507  
Moisture  
Dew Point 27 °F    
Average Humidity 45    
Maximum Humidity 64    
Minimum Humidity 26    
Precipitation  
Precipitation 0.00 in 0.03 in 0.26 in (1941)
Month to date precipitation 0.00 0.10  
Year to date precipitation 4.50 7.57  
Sea Level Pressure  
Sea Level Pressure 30.16 in    
Wind  
Wind Speed 4 mph (SE)    
Max Wind Speed 10 mph    
Max Gust Speed 14 mph    
T = Trace of Precipitation, MM = Missing Value Source: NWS Daily Summary

Daily Weather History Graph

Daily Weather History Graph

Search for Another Location

Airport or City:

Trip Planner

Search our weather history database for the weather conditions in past years. The results will help you decide how hot, cold, wet, or windy it might be!

Date:

Astronomy

Nov. 03, 2012 Rise Set
Actual Time 7:28 AM PDT 5:41 PM PDT
Civil Twilight 6:58 AM PDT 6:10 PM PDT
Nautical Twilight 6:25 AM PDT 6:43 PM PDT
Astronomical Twilight 5:52 AM PDT 7:16 PM PDT
Moon 9:24 PM PDT (11/3) 11:38 AM PDT (11/3)
Length of Visible Light 11h 11m
Length of Day
10h 12m
Waning Gibbous, 79% of the Moon is Illuminated
Nov 3
Waning Gibbous
Nov 6
Last Quarter
Nov 13
New
Nov 20
First Quarter
Nov 28
Full

Hourly Weather History & Observations

Time (PDT) Temp. Windchill Dew Point Humidity Pressure Visibility Wind Dir Wind Speed Gust Speed Precip Events Conditions
12:52 AM 44.1 °F 39.5 °F 28.0 °F 53% 30.08 in - SSE 8.1 mph - N/A   Unknown
1:52 AM 45.0 °F 41.2 °F 28.0 °F 52% 30.08 in - SSE 6.9 mph - N/A   Unknown
2:52 AM 39.0 °F - 26.1 °F 60% 30.10 in - Calm Calm - N/A   Unknown
3:52 AM 42.1 °F - 26.1 °F 53% 30.09 in - Calm Calm - N/A   Unknown
4:52 AM 39.9 °F 37.8 °F 26.1 °F 58% 30.12 in - NE 3.5 mph - N/A   Unknown
5:52 AM 37.9 °F 33.5 °F 25.0 °F 60% 30.14 in - SSE 5.8 mph - N/A   Unknown
6:52 AM 36.0 °F 33.3 °F 24.1 °F 62% 30.17 in - WSW 3.5 mph - N/A   Unknown
7:52 AM 39.0 °F 36.8 °F 25.0 °F 57% 30.18 in - East 3.5 mph - N/A   Unknown
8:52 AM 42.1 °F - 24.1 °F 49% 30.20 in - Calm Calm - N/A   Unknown
9:52 AM 51.1 °F - 27.0 °F 39% 30.18 in - Calm Calm - N/A   Unknown
10:52 AM 53.1 °F - 28.0 °F 38% 30.20 in - NNW 3.5 mph - N/A   Unknown
11:52 AM 57.0 °F - 28.0 °F 33% 30.19 in - Calm Calm - N/A   Unknown
12:52 PM 61.0 °F - 27.0 °F 27% 30.15 in - Calm Calm - N/A   Unknown
1:52 PM 64.9 °F - 28.0 °F 25% 30.12 in - SSW 6.9 mph - N/A   Unknown
2:52 PM 64.0 °F - 30.0 °F 28% 30.13 in - Variable 3.5 mph - N/A   Unknown
3:52 PM 64.9 °F - 30.9 °F 28% 30.14 in - West 4.6 mph - N/A   Unknown
4:52 PM 64.0 °F - 32.0 °F 30% 30.15 in - Calm Calm - N/A   Unknown
5:52 PM 55.9 °F - 28.9 °F 36% 30.18 in - NE 8.1 mph - N/A   Unknown
6:52 PM 57.9 °F - 26.1 °F 30% 30.20 in - East 6.9 mph - N/A   Unknown
7:52 PM 54.0 °F - 27.0 °F 35% 30.20 in - SE 10.4 mph - N/A   Unknown
8:52 PM 52.0 °F - 26.1 °F 37% 30.22 in - SSE 4.6 mph - N/A   Unknown
9:52 PM 46.9 °F - 26.1 °F 44% 30.22 in - SE 4.6 mph - N/A   Unknown
10:52 PM 46.9 °F - 26.1 °F 44% 30.22 in - SSE 6.9 mph - N/A   Unknown
11:52 PM 42.1 °F 37.7 °F 25.0 °F 51% 30.23 in - SSE 6.9 mph - N/A   Unknown